Weather History for KCFE - April, 2014

Change the Weather History Date:

Sunday, April 13, 2014

  Actual Average (KSTC) Record (KSTC)
Temperature  
Mean Temperature 36 °F 43 °F  
Max Temperature 41 °F 55 °F 81 °F (2006)
Min Temperature 32 °F 32 °F 12 °F (1928)
Degree Days  
Heating Degree Days 28 22  
Month to date heating degree days 322  
Since 1 July heating degree days 7872  
Cooling Degree Days 0 0  
Month to date cooling degree days 0  
Year to date cooling degree days 0  
Moisture  
Dew Point 30 °F    
Average Humidity 73    
Maximum Humidity 86    
Minimum Humidity 60    
Precipitation  
Precipitation 0.00 in 0.09 in 0.90 in (2010)
Month to date precipitation 0.97  
Year to date precipitation 3.76  
Snow  
Snow 0.00 in 0.10 in 1.70 in (1964)
Month to date snowfall 1.7  
Since 1 July snowfall 44.4  
Snow Depth -    
Sea Level Pressure  
Sea Level Pressure 29.88 in    
Wind  
Wind Speed 10 mph (NNW)    
Max Wind Speed 22 mph    
Max Gust Speed 29 mph    
Visibility 10 miles    
Events      
T = Trace of Precipitation, MM = Missing Value Source: NWS Daily Summary

Daily Weather History Graph

Daily Weather History Graph

Search for Another Location

Airport or City:

Trip Planner

Search our weather history database for the weather conditions in past years. The results will help you decide how hot, cold, wet, or windy it might be!

Date:

Astronomy

Apr. 13, 2014 Rise Set
Actual Time 6:33 AM CDT 7:58 PM CDT
Civil Twilight 6:03 AM CDT 8:29 PM CDT
Nautical Twilight 5:26 AM CDT 9:06 PM CDT
Astronomical Twilight 4:47 AM CDT 9:46 PM CDT
Moon 6:34 PM CDT (4/13) 5:37 AM CDT (4/13)
Length of Visible Light 14h 25m
Length of Day
13h 24m
Waxing Gibbous, 97% of the Moon is Illuminated
Apr 13
Waxing Gibbous
Apr 15
Full
Apr 22
Last Quarter
Apr 29
New
May 6
First Quarter

Hourly Weather History & Observations

Time (CDT) Temp. Windchill Dew Point Humidity Pressure Visibility Wind Dir Wind Speed Gust Speed Precip Events Conditions
12:15 AM 41.4 °F 36.8 °F 36.5 °F 83% 29.76 in 10.0 mi North 6.9 mph - N/A   Overcast
12:36 AM 41.2 °F 36.0 °F 36.1 °F 82% 29.77 in 10.0 mi North 8.1 mph - N/A   Overcast
12:55 AM 41.0 °F 35.8 °F 35.8 °F 82% 29.79 in 10.0 mi NNE 8.1 mph - N/A   Overcast
1:15 AM 41.0 °F 36.4 °F 35.8 °F 82% 29.79 in 10.0 mi NNE 6.9 mph - N/A   Overcast
1:36 AM 40.8 °F 36.9 °F 35.8 °F 82% 29.79 in 10.0 mi North 5.8 mph - N/A   Overcast
1:56 AM 40.6 °F 37.5 °F 35.8 °F 83% 29.80 in 10.0 mi North 4.6 mph - N/A   Overcast
2:15 AM 41.0 °F 38.0 °F 35.8 °F 82% 29.81 in 10.0 mi NNW 4.6 mph - N/A   Overcast
2:36 AM 41.0 °F 38.0 °F 35.8 °F 82% 29.81 in 10.0 mi NNW 4.6 mph - N/A   Overcast
2:55 AM 40.6 °F 38.6 °F 36.0 °F 83% 29.81 in 10.0 mi North 3.5 mph - N/A   Overcast
3:16 AM 40.8 °F 37.8 °F 36.1 °F 83% 29.81 in 10.0 mi NNW 4.6 mph - N/A   Overcast
3:35 AM 40.1 °F 35.3 °F 35.6 °F 84% 29.82 in 10.0 mi NNW 6.9 mph - N/A   Overcast
3:55 AM 39.7 °F 34.9 °F 35.6 °F 85% 29.82 in 10.0 mi NNW 6.9 mph - N/A   Overcast
4:16 AM 39.7 °F 36.5 °F 35.6 °F 85% 29.83 in 10.0 mi North 4.6 mph - N/A   Overcast
4:35 AM 39.4 °F 35.2 °F 35.4 °F 86% 29.83 in 10.0 mi NNW 5.8 mph - N/A   Overcast
4:55 AM 39.4 °F 34.5 °F 35.4 °F 86% 29.83 in 10.0 mi NNW 6.9 mph - N/A   Overcast
5:16 AM 39.2 °F 35.0 °F 35.2 °F 86% 29.83 in 10.0 mi NW 5.8 mph - N/A   Overcast
5:35 AM 39.2 °F 33.6 °F 35.2 °F 86% 29.82 in 10.0 mi NNW 8.1 mph - N/A   Overcast
5:55 AM 39.4 °F 35.2 °F 35.6 °F 86% 29.85 in 10.0 mi West 5.8 mph - N/A   Overcast
6:15 AM 39.9 °F 35.8 °F 35.6 °F 85% 29.84 in 10.0 mi NW 5.8 mph - N/A   Overcast
6:35 AM 40.1 °F 34.7 °F 35.6 °F 84% 29.85 in 10.0 mi NW 8.1 mph - N/A   Overcast
6:56 AM 40.1 °F 35.3 °F 35.6 °F 84% 29.85 in 10.0 mi NW 6.9 mph - N/A   Overcast
7:15 AM 40.3 °F 34.4 °F 36.0 °F 85% 29.85 in 10.0 mi NW 9.2 mph - N/A   Overcast
7:35 AM 40.5 °F 34.6 °F 35.8 °F 83% 29.87 in 10.0 mi NNW 9.2 mph - N/A   Overcast
7:56 AM 40.6 °F 33.8 °F 36.0 °F 83% 29.87 in 10.0 mi NNW 11.5 mph - N/A   Overcast
8:16 AM 40.8 °F 34.5 °F 36.0 °F 83% 29.88 in 10.0 mi NNW 10.4 mph - N/A   Overcast
8:35 AM 40.8 °F 33.7 °F 36.1 °F 83% 29.88 in 10.0 mi NW 12.7 mph - N/A   Overcast
8:56 AM 39.6 °F 32.5 °F 34.9 °F 83% 29.89 in 10.0 mi NW 11.5 mph 21.9 mph N/A   Overcast
9:15 AM 39.2 °F 32.0 °F 34.2 °F 82% 29.89 in 10.0 mi NW 11.5 mph 16.1 mph N/A   Overcast
9:35 AM 38.3 °F 30.1 °F 32.9 °F 81% 29.88 in 10.0 mi NNW 13.8 mph 20.7 mph N/A   Overcast
9:56 AM 38.3 °F 30.9 °F 32.2 °F 79% 29.89 in 10.0 mi NNW 11.5 mph 17.3 mph N/A   Overcast
10:35 AM 37.4 °F 26.6 °F 31.8 °F 80% 29.86 in 10.0 mi NNW 21.9 mph 28.8 mph N/A   Overcast
10:56 AM 37.4 °F 27.8 °F 31.6 °F 80% 29.87 in 10.0 mi NW 17.3 mph 24.2 mph N/A   Overcast
11:16 AM 37.2 °F 27.0 °F 30.7 °F 77% 29.86 in 10.0 mi NNW 19.6 mph 26.5 mph N/A   Overcast
11:35 AM 37.4 °F 28.5 °F 30.6 °F 76% 29.89 in 10.0 mi NNW 15.0 mph 20.7 mph N/A   Overcast
11:56 AM 36.7 °F 27.6 °F 30.0 °F 77% 29.91 in 10.0 mi NNW 15.0 mph 23.0 mph N/A   Overcast
12:16 PM 37.4 °F 30.8 °F 29.8 °F 74% 29.94 in 10.0 mi NNW 9.2 mph - N/A   Overcast
12:35 PM 37.4 °F 29.3 °F 29.1 °F 72% 29.94 in 10.0 mi NNW 12.7 mph 17.3 mph N/A   Overcast
12:56 PM 37.4 °F 28.5 °F 29.1 °F 72% 29.93 in 10.0 mi NNW 15.0 mph 20.7 mph N/A   Overcast
1:16 PM 38.5 °F 29.6 °F 29.3 °F 70% 29.93 in 10.0 mi NNW 16.1 mph 20.7 mph N/A   Mostly Cloudy
1:35 PM 38.8 °F 30.8 °F 28.9 °F 68% 29.93 in 10.0 mi NNW 13.8 mph 20.7 mph N/A   Mostly Cloudy
1:56 PM 39.2 °F 30.5 °F 28.9 °F 67% 29.92 in 10.0 mi North 16.1 mph 20.7 mph N/A   Mostly Cloudy
2:16 PM 39.7 °F 31.5 °F 28.4 °F 64% 29.92 in 10.0 mi NNW 15.0 mph 21.9 mph N/A   Overcast
2:35 PM 40.3 °F 32.6 °F 28.4 °F 63% 29.92 in 10.0 mi NNW 13.8 mph 18.4 mph N/A   Overcast
2:56 PM 41.0 °F 33.5 °F 27.9 °F 60% 29.91 in 10.0 mi NNW 13.8 mph 19.6 mph N/A   Mostly Cloudy
3:15 PM 40.6 °F 34.8 °F 28.2 °F 61% 29.91 in 10.0 mi North 9.2 mph 18.4 mph N/A   Mostly Cloudy
3:35 PM 40.1 °F 32.4 °F 27.3 °F 60% 29.90 in 10.0 mi North 13.8 mph 21.9 mph N/A   Mostly Cloudy
3:55 PM 39.6 °F 32.1 °F 27.0 °F 61% 29.90 in 10.0 mi North 12.7 mph 20.7 mph N/A   Mostly Cloudy
4:15 PM 39.2 °F 31.2 °F 27.1 °F 62% 29.90 in 10.0 mi North 13.8 mph 18.4 mph N/A   Overcast
4:36 PM 38.8 °F 30.4 °F 26.6 °F 61% 29.90 in 10.0 mi North 15.0 mph 20.7 mph N/A   Overcast
4:55 PM 38.3 °F 30.1 °F 26.1 °F 61% 29.90 in 10.0 mi North 13.8 mph 18.4 mph N/A   Overcast
5:15 PM 37.9 °F 29.2 °F 25.5 °F 61% 29.90 in 10.0 mi North 15.0 mph 19.6 mph N/A   Mostly Cloudy
5:36 PM 37.6 °F 28.4 °F 25.2 °F 61% 29.90 in 10.0 mi North 16.1 mph 21.9 mph N/A   Mostly Cloudy
5:55 PM 37.8 °F 30.7 °F 25.7 °F 62% 29.91 in 10.0 mi North 10.4 mph 18.4 mph N/A   Overcast
6:15 PM 37.4 °F 28.9 °F 24.8 °F 60% 29.92 in 10.0 mi North 13.8 mph 24.2 mph N/A   Overcast
6:36 PM 36.3 °F 27.1 °F 23.9 °F 61% 29.92 in 10.0 mi North 15.0 mph 27.6 mph N/A   Overcast
6:55 PM 35.8 °F 25.7 °F 23.2 °F 60% 29.92 in 10.0 mi North 17.3 mph 24.2 mph N/A   Overcast
7:15 PM 35.6 °F 27.1 °F 23.5 °F 62% 29.93 in 10.0 mi North 12.7 mph 23.0 mph N/A   Overcast
7:36 PM 35.2 °F 25.0 °F 23.5 °F 62% 29.93 in 10.0 mi North 17.3 mph 26.5 mph N/A   Overcast
7:55 PM 35.1 °F 24.5 °F 23.0 °F 61% 29.92 in 10.0 mi North 18.4 mph 25.3 mph N/A   Overcast
8:15 PM 34.9 °F 24.9 °F 22.3 °F 60% 29.91 in 10.0 mi North 16.1 mph 27.6 mph N/A   Overcast
8:36 PM 34.7 °F 24.3 °F 22.5 °F 61% 29.92 in 10.0 mi North 17.3 mph 24.2 mph N/A   Overcast
8:55 PM 34.7 °F 25.5 °F 22.6 °F 61% 29.91 in 10.0 mi North 13.8 mph 20.7 mph N/A   Overcast
9:15 PM 34.7 °F 25.5 °F 22.1 °F 60% 29.93 in 10.0 mi NNW 13.8 mph 21.9 mph N/A   Overcast
9:36 PM 34.7 °F 25.5 °F 22.3 °F 61% 29.94 in 10.0 mi NNW 13.8 mph 18.4 mph N/A   Overcast
9:55 PM 34.0 °F 25.0 °F 23.2 °F 65% 29.94 in 10.0 mi NNW 12.7 mph 18.4 mph N/A   Overcast
10:15 PM 33.8 °F 23.9 °F 22.6 °F 64% 29.94 in 10.0 mi NNW 15.0 mph 21.9 mph N/A   Mostly Cloudy
10:36 PM 33.3 °F 23.2 °F 22.6 °F 65% 29.95 in 10.0 mi NNW 15.0 mph 19.6 mph N/A   Scattered Clouds
10:55 PM 32.9 °F 23.2 °F 22.5 °F 65% 29.96 in 10.0 mi NNW 13.8 mph 18.4 mph N/A   Mostly Cloudy
11:15 PM 32.9 °F 24.7 °F 22.5 °F 65% 29.97 in 10.0 mi NNW 10.4 mph 19.6 mph N/A   Overcast
11:36 PM 32.9 °F 24.1 °F 20.3 °F 60% 29.98 in 10.0 mi North 11.5 mph 25.3 mph N/A   Overcast
11:55 PM 32.0 °F 22.1 °F 20.7 °F 63% 29.98 in 10.0 mi NNW 13.8 mph 25.3 mph N/A   Overcast